INTELSAT 701 (IS-701)

Last updated on Sat Jan 05 2019 02:57:31 GMT+0000 (Coordinated Universal Time)

1 22871U 93066A 19004.14553951 -.00000040 00000-0 00000+0 0 9995 2 22871 5.2722 64.3734 0003008 254.1080 285.8615 0.99318017 92013
UTC large
Height (km)
Speed (km/s)
/
Latitude / Longitude
Inclination (degrees)
Orbital Period (minutes)
Azimuth
Elevation
Range (km)
Doppler Factor

Next 0 passes for location: London (51.5072 / 0.1276)

Sorry there are no passes over London.